Location: Breungeshain
(50.5000°N, 9.2000°E)
Time: 20:42:37
(UTC+00:00)

ISS - Pass Details

Date: 28 May 2017
Orbit: 401 x 408 km, 51.6° (Epoch: 25 June)

Event Time Altitude Azimuth Distance (km) Brightness Sun altitude
Rises 22:45:46 0° 282° (WNW) 2,340 0.3 -17.5°
Reaches altitude 10° 22:47:52 10° 283° (WNW) 1,477 -0.7 -17.5°
Maximum altitude 22:51:11 84° 11° (N) 416 -3.8 -17.6°
Enters shadow 22:53:16 21° 99° (E) 987 -2.1 -17.6°
